Weather History for Eureka, NU

Change the Weather History Date:

Sunday, March 30, 2014

  Actual Average Record
Temperature  
Mean Temperature -30 °F -  
Max Temperature -26 °F -11 °F 5 °F (2005)
Min Temperature -36 °F -26 °F -45 °F (1999)
Degree Days  
Heating Degree Days 96    
Moisture  
Dew Point -40 °F    
Average Humidity 58    
Maximum Humidity 68    
Minimum Humidity 40    
Precipitation  
Precipitation 0.00 in 0.00 in - ()
Sea Level Pressure  
Sea Level Pressure 30.18 in    
Wind  
Wind Speed 2 mph ()    
Max Wind Speed 6 mph    
Max Gust Speed -    
Visibility 15.0 miles    
Events      
Averages and records for this station are not official NWS values.
T = Trace of Precipitation, MM = Missing Value Source: Averaged Metar Reports

Daily Weather History Graph

Daily Weather History Graph

Search for Another Location

Airport:

Trip Planner

Search our weather history database for the weather conditions in past years. The results will help you decide how hot, cold, wet, or windy it might be!

Date:

Astronomy

Mar. 30, 2014 Rise Set
Actual Time 4:58 AM CDT 8:44 PM CDT
Civil Twilight 1:40 AM CDT 12:15 AM CDT
Nautical Twilight Sun does not rise Sun does not rise
Astronomical Twilight Sun does not rise Sun does not rise
Moon 4:59 AM CDT (3/30) 9:54 PM CDT (3/30)
Length of Visible Light 22h 35m
Length of Day
15h 46m
Waning Crescent, 0% of the Moon is Illuminated
Mar 30
Waning Crescent
Mar 30
New
Apr 7
First Quarter
Apr 15
Full
Apr 22
Last Quarter

Hourly Weather History & Observations

Time (CDT) Temp. Windchill Dew Point Humidity Pressure Visibility Wind Dir Wind Speed Gust Speed Precip Events Conditions
1:00 AM -31 °F - -41 °F 40% 30.18 in 15 mi East 2.3 mph - -   Overcast
1:00 AM -31.0 °F -43.3 °F -40.0 °F 62% 30.18 in 15.0 mi East 3.5 mph - N/A   Overcast
2:00 AM -31.0 °F - -40.0 °F 62% 30.18 in 15.0 mi East 2.3 mph - N/A   Mostly Cloudy
3:00 AM -27.4 °F - -36.4 °F 62% 30.18 in 15.0 mi ESE 2.3 mph - N/A   Mostly Cloudy
4:00 AM -27.4 °F -39.2 °F -36.4 °F 62% 30.18 in 15.0 mi East 3.5 mph - N/A   Mostly Cloudy
5:00 AM -31.0 °F - -40.0 °F 62% 30.18 in 15.0 mi Calm Calm - N/A   Partly Cloudy
6:00 AM -31.0 °F -48.4 °F -40.0 °F 62% 30.18 in 15.0 mi SE 5.8 mph - N/A   Mostly Cloudy
7:00 AM -33 °F - -42 °F 44% 30.18 in 15 mi East 2.3 mph - -   Scattered Clouds
7:00 AM -32.8 °F -45.3 °F -41.8 °F 62% 30.18 in 15.0 mi East 3.5 mph - N/A   Partly Cloudy
8:00 AM -32.8 °F - -40.0 °F 68% 30.18 in 15.0 mi East 2.3 mph - N/A   Partly Cloudy
9:00 AM -31.0 °F -46.1 °F -40.0 °F 62% 30.19 in 15.0 mi ESE 4.6 mph - N/A   Partly Cloudy
10:00 AM -31.0 °F - -40.0 °F 62% 30.19 in 15.0 mi ENE 2.3 mph - N/A   Partly Cloudy
11:00 AM -27.4 °F - -36.4 °F 62% 30.18 in 15.0 mi East 2.3 mph - N/A   Partly Cloudy
12:00 PM -29.2 °F - -40.0 °F 56% 30.19 in 15.0 mi Calm Calm - N/A   Clear
1:00 PM -30 °F - -39 °F 41% 30.18 in 15 mi Calm Calm - -  
1:00 PM -29.2 °F - -40.0 °F 56% 30.18 in 15.0 mi Calm Calm - N/A   Clear
2:00 PM -29.2 °F - -38.2 °F 62% 30.18 in 15.0 mi Calm Calm - N/A   Clear
3:00 PM -27.4 °F - -38.2 °F 57% 30.19 in 15.0 mi Calm Calm - N/A   Clear
4:00 PM -29.2 °F - -40.0 °F 56% 30.19 in 15.0 mi Calm Calm - N/A   Clear
5:00 PM -29.2 °F -41.2 °F -38.2 °F 62% 30.18 in 15.0 mi SW 3.5 mph - N/A   Partly Cloudy
6:00 PM -31.0 °F - -40.0 °F 62% 30.17 in 15.0 mi Calm Calm - N/A   Partly Cloudy
7:00 PM -32 °F - -41 °F 43% 30.17 in 15 mi Calm Calm - -   Scattered Clouds
7:00 PM -31.0 °F - -40.0 °F 62% 30.17 in 15.0 mi Calm Calm - N/A   Partly Cloudy
8:00 PM -32.8 °F - -41.8 °F 62% 30.17 in 15.0 mi North 2.3 mph - N/A   Partly Cloudy
9:00 PM -32.8 °F - -41.8 °F 62% 30.17 in 15.0 mi NNW 2.3 mph - N/A   Partly Cloudy
10:00 PM -36.4 °F -54.8 °F -43.6 °F 67% 30.15 in 15.0 mi West 5.8 mph - N/A   Partly Cloudy